Watford City, ND

12:10 PM CST on November 20, 2017 (GMT -0600)
Watford City

Weather History for KS25 - January, 2012

Change the Weather History Date:

Saturday, January 21, 2012

  Actual Average (KISN) Record (KISN)
Temperature  
Mean Temperature 12 °F -  
Max Temperature 19 °F 27 °F 50 °F (1968)
Min Temperature 5 °F 6 °F -39 °F (1954)
Degree Days  
Heating Degree Days 53    
Moisture  
Dew Point 4 °F    
Average Humidity 75    
Maximum Humidity 80    
Minimum Humidity 67    
Precipitation  
Precipitation 0.00 in - - ()
Sea Level Pressure  
Sea Level Pressure 29.47 in    
Wind  
Wind Speed 10 mph (ESE)    
Max Wind Speed 15 mph    
Max Gust Speed 21 mph    
Visibility 10 miles    
Events      
Averages and records for this station are not official NWS values.
T = Trace of Precipitation, MM = Missing Value Source: NWS Daily Summary

Daily Weather History Graph

Daily Weather History Graph

Search for Another Location

Airport or City:

Trip Planner

Search our weather history database for the weather conditions in past years. The results will help you decide how hot, cold, wet, or windy it might be!

Date:

Astronomy

Jan. 21, 2012 Rise Set
Actual Time 8:32 AM CST 5:36 PM CST
Civil Twilight 7:58 AM CST 6:10 PM CST
Nautical Twilight 7:20 AM CST 6:48 PM CST
Astronomical Twilight 6:43 AM CST 7:25 PM CST
Moon 7:08 AM CST (1/21) 4:12 PM CST (1/21)
Length of Visible Light 10h 11m
Length of Day
9h 03m
Waning Crescent, 3% of the Moon is Illuminated
Jan 21
Waning Crescent
Jan 23
New
Jan 30
First Quarter
Feb 7
Full
Feb 14
Last Quarter

Hourly Weather History & Observations

Time (CST) Temp. Windchill Dew Point Humidity Pressure Visibility Wind Dir Wind Speed Gust Speed Precip Events Conditions
12:15 AM 8.6 °F -8.3 °F -0.4 °F 67% 29.82 in 10.0 mi SSE 15.0 mph 19.6 mph N/A   Overcast
12:35 AM 8.6 °F -7.0 °F -0.4 °F 67% 29.81 in 10.0 mi SSE 12.7 mph 19.6 mph N/A   Overcast
12:55 AM 8.6 °F -7.7 °F -0.4 °F 67% 29.80 in 10.0 mi SE 13.8 mph 20.7 mph N/A   Overcast
1:15 AM 8.6 °F -5.5 °F -0.4 °F 67% 29.79 in 10.0 mi SE 10.4 mph 19.6 mph N/A   Overcast
1:35 AM 6.8 °F -4.8 °F -0.4 °F 72% 29.77 in 10.0 mi ESE 6.9 mph - N/A   Overcast
1:55 AM 5.0 °F -5.6 °F -0.4 °F 78% 29.75 in 10.0 mi ESE 5.8 mph - N/A   Scattered Clouds
2:15 AM 5.0 °F -5.6 °F -0.4 °F 78% 29.72 in 10.0 mi SE 5.8 mph - N/A   Scattered Clouds
2:35 AM 5.0 °F -4.1 °F -0.4 °F 78% 29.71 in 10.0 mi ESE 4.6 mph - N/A   Mostly Cloudy
2:55 AM 6.8 °F -4.8 °F -0.4 °F 72% 29.69 in 10.0 mi ESE 6.9 mph - N/A   Overcast
3:15 AM 6.8 °F -8.6 °F -0.4 °F 72% 29.68 in 10.0 mi SE 11.5 mph - N/A   Overcast
3:35 AM 6.8 °F -8.6 °F -0.4 °F 72% 29.65 in 10.0 mi ESE 11.5 mph - N/A   Mostly Cloudy
3:55 AM 5.0 °F -8.1 °F -0.4 °F 78% 29.65 in 10.0 mi SE 8.1 mph - N/A   Scattered Clouds
4:15 AM 5.0 °F -6.9 °F -0.4 °F 78% 29.64 in 10.0 mi ESE 6.9 mph - N/A   Clear
4:35 AM 5.0 °F -5.6 °F -0.4 °F 78% 29.63 in 10.0 mi ESE 5.8 mph - N/A   Clear
4:55 AM 5.0 °F -5.6 °F -0.4 °F 78% 29.61 in 10.0 mi East 5.8 mph - N/A   Clear
5:15 AM 5.0 °F -9.1 °F -0.4 °F 78% 29.59 in 10.0 mi ESE 9.2 mph - N/A   Clear
5:35 AM 5.0 °F -8.1 °F -0.4 °F 78% 29.57 in 10.0 mi ESE 8.1 mph - N/A   Clear
5:55 AM 5.0 °F -8.1 °F -0.4 °F 78% 29.56 in 10.0 mi SE 8.1 mph - N/A   Clear
6:15 AM 5.0 °F -5.6 °F -0.4 °F 78% 29.56 in 10.0 mi ESE 5.8 mph - N/A   Clear
6:35 AM 5.0 °F -9.1 °F -0.4 °F 78% 29.53 in 10.0 mi ESE 9.2 mph - N/A   Clear
6:55 AM 5.0 °F -5.6 °F -0.4 °F 78% 29.52 in 10.0 mi East 5.8 mph - N/A   Clear
7:15 AM 5.0 °F -6.9 °F -0.4 °F 78% 29.51 in 10.0 mi ESE 6.9 mph - N/A   Clear
7:35 AM 5.0 °F -4.1 °F -0.4 °F 78% 29.50 in 10.0 mi ENE 4.6 mph - N/A   Clear
7:55 AM 5.0 °F -4.1 °F -0.4 °F 78% 29.48 in 10.0 mi East 4.6 mph - N/A   Clear
8:15 AM 5.0 °F -8.1 °F -0.4 °F 78% 29.47 in 10.0 mi ESE 8.1 mph - N/A   Clear
8:35 AM 5.0 °F -6.9 °F -0.4 °F 78% 29.47 in 10.0 mi ESE 6.9 mph - N/A   Clear
8:55 AM 5.0 °F -8.1 °F -0.4 °F 78% 29.45 in 10.0 mi SE 8.1 mph - N/A   Clear
9:15 AM 6.8 °F -3.5 °F -0.4 °F 72% 29.45 in 10.0 mi SE 5.8 mph - N/A   Clear
9:35 AM 6.8 °F -5.9 °F 1.4 °F 79% 29.44 in 10.0 mi ESE 8.1 mph - N/A   Clear
9:55 AM 6.8 °F -5.9 °F 1.4 °F 79% 29.43 in 10.0 mi ESE 8.1 mph - N/A   Scattered Clouds
10:15 AM 8.6 °F -6.3 °F 1.4 °F 73% 29.41 in 10.0 mi SE 11.5 mph - N/A   Mostly Cloudy
10:35 AM 8.6 °F -5.5 °F 3.2 °F 79% 29.40 in 10.0 mi ESE 10.4 mph - N/A   Overcast
10:55 AM 10.4 °F -2.4 °F 5.0 °F 79% 29.41 in 10.0 mi ESE 9.2 mph - N/A   Overcast
11:15 AM 10.4 °F -2.4 °F 5.0 °F 79% 29.40 in 10.0 mi SE 9.2 mph - N/A   Overcast
11:35 AM 10.4 °F -4.8 °F 5.0 °F 79% 29.38 in 10.0 mi SE 12.7 mph - N/A   Mostly Cloudy
11:55 AM 10.4 °F -4.8 °F 5.0 °F 79% 29.37 in 10.0 mi ESE 12.7 mph - N/A   Mostly Cloudy
12:15 PM 12.2 °F -1.8 °F 5.0 °F 73% 29.35 in 10.0 mi ESE 11.5 mph - N/A   Mostly Cloudy
12:35 PM 14.0 °F 1.2 °F 6.8 °F 73% 29.34 in 10.0 mi ESE 10.4 mph - N/A   Mostly Cloudy
12:55 PM 14.0 °F 0.5 °F 6.8 °F 73% 29.33 in 10.0 mi ESE 11.5 mph - N/A   Overcast
1:15 PM 15.8 °F 1.4 °F 6.8 °F 68% 29.32 in 10.0 mi ESE 13.8 mph - N/A   Mostly Cloudy
1:35 PM 15.8 °F 3.4 °F 8.6 °F 73% 29.32 in 10.0 mi SE 10.4 mph - N/A   Overcast
1:55 PM 15.8 °F 3.4 °F 8.6 °F 73% 29.31 in 10.0 mi ESE 10.4 mph - N/A   Overcast
2:15 PM 15.8 °F 2.1 °F 8.6 °F 73% 29.29 in 10.0 mi ESE 12.7 mph - N/A   Scattered Clouds
2:35 PM 15.8 °F 1.4 °F 8.6 °F 73% 29.28 in 10.0 mi ESE 13.8 mph - N/A   Clear
2:55 PM 17.6 °F 5.0 °F 8.6 °F 68% 29.28 in 10.0 mi ESE 11.5 mph - N/A   Clear
3:15 PM 17.6 °F 5.0 °F 10.4 °F 73% 29.28 in 10.0 mi ESE 11.5 mph - N/A   Clear
3:35 PM 17.6 °F 5.0 °F 10.4 °F 73% 29.27 in 10.0 mi ESE 11.5 mph - N/A   Clear
3:55 PM 17.6 °F 5.7 °F 10.4 °F 73% 29.27 in 10.0 mi ESE 10.4 mph - N/A   Clear
4:15 PM 17.6 °F 6.4 °F 10.4 °F 73% 29.27 in 10.0 mi ESE 9.2 mph - N/A   Clear
4:35 PM 17.6 °F 5.7 °F 10.4 °F 73% 29.25 in 10.0 mi ESE 10.4 mph - N/A   Clear
4:55 PM 17.6 °F 5.7 °F 10.4 °F 73% 29.25 in 10.0 mi SE 10.4 mph - N/A   Clear
5:15 PM 17.6 °F 7.3 °F 12.2 °F 79% 29.26 in 10.0 mi SE 8.1 mph - N/A   Clear
5:35 PM 19.4 °F 11.5 °F 12.2 °F 74% 29.27 in 10.0 mi SE 5.8 mph - N/A   Clear
5:55 PM 19.4 °F 10.4 °F 12.2 °F 74% 29.27 in 10.0 mi ESE 6.9 mph - N/A   Clear
6:15 PM 19.4 °F 10.4 °F 14.0 °F 80% 29.27 in 10.0 mi ESE 6.9 mph - N/A   Clear
6:35 PM 19.4 °F 9.5 °F 14.0 °F 80% 29.27 in 10.0 mi SE 8.1 mph - N/A   Clear
6:55 PM 19.4 °F 10.4 °F 14.0 °F 80% 29.27 in 10.0 mi ESE 6.9 mph - N/A   Clear
7:15 PM 19.4 °F 11.5 °F 14.0 °F 80% 29.27 in 10.0 mi SE 5.8 mph - N/A   Clear
7:35 PM 19.4 °F 12.8 °F 14.0 °F 80% 29.27 in 10.0 mi SE 4.6 mph - N/A   Clear
7:55 PM 19.4 °F 11.5 °F 15.8 °F 86% 29.26 in 10.0 mi ESE 5.8 mph - N/A   Clear
8:15 PM 19.4 °F 11.5 °F 15.8 °F 86% 29.26 in 10.0 mi ESE 5.8 mph - N/A   Clear
8:35 PM 19.4 °F 12.8 °F 15.8 °F 86% 29.25 in 10.0 mi ESE 4.6 mph - N/A   Clear
9:15 PM 19.4 °F 14.3 °F 15.8 °F 86% 29.26 in 10.0 mi ESE 3.5 mph - N/A   Clear
9:35 PM 19.4 °F 12.8 °F 15.8 °F 86% 29.26 in 10.0 mi ESE 4.6 mph - N/A   Clear
9:55 PM 21.2 °F 12.6 °F 15.8 °F 80% 29.26 in 10.0 mi ESE 6.9 mph - N/A   Clear
10:15 PM 21.2 °F 13.6 °F 15.8 °F 80% 29.25 in 10.0 mi SE 5.8 mph - N/A   Clear
10:35 PM 21.2 °F 13.6 °F 15.8 °F 80% 29.25 in 10.0 mi ESE 5.8 mph - N/A   Clear
10:55 PM 23.0 °F 15.8 °F 17.6 °F 80% 29.25 in 10.0 mi ESE 5.8 mph - N/A   Clear
11:15 PM 23.0 °F 18.4 °F 17.6 °F 80% 29.25 in 10.0 mi SE 3.5 mph - N/A   Clear
11:35 PM 23.0 °F 15.8 °F 17.6 °F 80% 29.25 in 10.0 mi SE 5.8 mph - N/A   Clear
11:55 PM 23.0 °F 18.4 °F 17.6 °F 80% 29.26 in 10.0 mi ESE 3.5 mph - N/A   Partly Cloudy